Location: Mountain Grove
(34.0887°N, 86.6172°W)
Time: 00:25:20
(UTC+00:00)

DMSP B5D2-2 - Pass Details

Date: 14 July 2020
Orbit: 789 x 807 km, 98.3° (Epoch: 12 August)

Event Time Altitude Azimuth Distance (km) Brightness Sun altitude
Rises 01:54:24 0° 9° (N) 3,292 7.7 -10.6°
Reaches altitude 10° 01:56:45 10° 6° (N) 2,358 6.9 -11.0°
Maximum altitude 02:01:54 66° 286° (WNW) 858 4.5 -11.9°
Drops below altitude 10° 02:07:01 10° 204° (SSW) 2,344 6.4 -12.7°
Sets 02:09:21 0° 201° (SSW) 3,270 7.1 -13.1°
